This is the latest recevied weather packets stored in our database for station/object DL9CN-10. If no packets are shown the sender has not sent any weather packets the latest 10 day(s).
| Time | Temp. | Humidity | Pressure | Rain* | Wind** | Luminosity | Snow |
|---|---|---|---|---|---|---|---|
| 1777640866 | 22.22° C | 34% | 1024.4 hPa | - | - | - | - |
| 1777639966 | 22.22° C | 34% | 1024.8 hPa | - | - | - | - |
| 1777639066 | 21.67° C | 34% | 1024.9 hPa | - | - | - | - |
| 1777638166 | 21.11° C | 34% | 1025 hPa | - | - | - | - |
| 1777637266 | 20.56° C | 34% | 1025.1 hPa | - | - | - | - |
| 1777636365 | 20° C | 34% | 1025.3 hPa | - | - | - | - |
| 1777635465 | 20° C | 34% | 1025.4 hPa | - | - | - | - |
| 1777634565 | 19.44° C | 34% | 1025.6 hPa | - | - | - | - |
| 1777633665 | 18.89° C | 34% | 1025.9 hPa | - | - | - | - |
| 1777632765 | 18.89° C | 34% | 1026 hPa | - | - | - | - |
| 1777631864 | 18.33° C | 34% | 1026.3 hPa | - | - | - | - |
| 1777630967 | 18.33° C | 34% | 1026.3 hPa | - | - | - | - |
| 1777630067 | 17.78° C | 35% | 1026.4 hPa | - | - | - | - |
| 1777629167 | 17.22° C | 35% | 1026.6 hPa | - | - | - | - |
| 1777628266 | 17.22° C | 35% | 1026.5 hPa | - | - | - | - |
| 1777627366 | 16.67° C | 35% | 1026.7 hPa | - | - | - | - |
| 1777626466 | 16.11° C | 35% | 1026.8 hPa | - | - | - | - |
| 1777625566 | 16.11° C | 35% | 1026.8 hPa | - | - | - | - |
| 1777624666 | 15.56° C | 35% | 1026.7 hPa | - | - | - | - |
| 1777623766 | 15° C | 35% | 1026.8 hPa | - | - | - | - |
| 1777622866 | 15° C | 35% | 1026.9 hPa | - | - | - | - |
| 1777621966 | 14.44° C | 34% | 1026.9 hPa | - | - | - | - |
| 1777621065 | 14.44° C | 34% | 1026.9 hPa | - | - | - | - |
| 1777620165 | 13.89° C | 34% | 1026.9 hPa | - | - | - | - |
| 1777619265 | 13.33° C | 34% | 1026.8 hPa | - | - | - | - |
* Rain since midnight (hover to see other rain measurements)
** Current wind speed in m/s (hover to see current wind gust speed)